When you browse on this site, cookies collect data to enhance your experience and personalize the content and advertising you see.
Visit our Privacy Policy to learn more. By continuing to use the site, you agree to this use of cookies and data.

Hourly Weather Razgrad

Today, 10 August, Monday

Time Temperature Precipitation Wind Pressure Humidity
00:00 +21°C° 0 mm 1 mps 740 mmHg 61%
01:00 +21°C° 0 mm 1 mps 740 mmHg 64%
02:00 +18°C° 0 mm 0 mps 740 mmHg 66%
03:00 +18°C° 0 mm 0 mps 740 mmHg 68%
04:00 +17°C° 0 mm 0 mps 740 mmHg 69%
05:00 +19°C° 0 mm 1 mps 740 mmHg 71%
06:00 +21°C° 0 mm 1 mps 740 mmHg 63%
07:00 +24°C° 0 mm 1 mps 741 mmHg 55%
08:00 +26°C° 0 mm 2 mps 741 mmHg 47%
09:00 +28°C° 0 mm 2 mps 741 mmHg 42%
10:00 +30°C° 0 mm 3 mps 741 mmHg 37%
11:00 +33°C° 0 mm 4 mps 741 mmHg 32%
12:00 +33°C° 0 mm 4 mps 741 mmHg 30%
13:00 +34°C° 0 mm 4 mps 740 mmHg 27%
14:00 +35°C° 0 mm 4 mps 740 mmHg 25%
15:00 +34°C° 0 mm 4 mps 740 mmHg 25%
16:00 +34°C° 0 mm 3 mps 740 mmHg 25%
17:00 +34°C° 0 mm 3 mps 740 mmHg 25%
18:00 +31°C° 0 mm 3 mps 740 mmHg 30%
19:00 +29°C° 0 mm 2 mps 740 mmHg 35%
20:00 +27°C° 0 mm 2 mps 740 mmHg 40%
21:00 +25°C° 0 mm 2 mps 740 mmHg 47%
22:00 +24°C° 0 mm 2 mps 741 mmHg 53%
23:00 +21°C° 0 mm 2 mps 741 mmHg 60%

Tomorrow, 11 August, Tuesday

Time Temperature Precipitation Wind Pressure Humidity
00:00 +21°C° 0 mm 2 mps 741 mmHg 62%
01:00 +20°C° 0 mm 2 mps 741 mmHg 63%
02:00 +21°C° 0 mm 1 mps 741 mmHg 65%
03:00 +21°C° 0 mm 1 mps 741 mmHg 65%
04:00 +20°C° 0 mm 1 mps 741 mmHg 65%
05:00 +20°C° 0 mm 1 mps 741 mmHg 65%
06:00 +23°C° 0 mm 1 mps 741 mmHg 56%
07:00 +26°C° 0 mm 1 mps 741 mmHg 48%
08:00 +28°C° 0 mm 1 mps 741 mmHg 40%
09:00 +30°C° 0 mm 1 mps 741 mmHg 35%
10:00 +33°C° 0 mm 1 mps 741 mmHg 31%
11:00 +35°C° 0 mm 1 mps 742 mmHg 26%
12:00 +34°C° 0 mm 1 mps 741 mmHg 27%
13:00 +34°C° 0 mm 1 mps 741 mmHg 27%
14:00 +34°C° 0 mm 1 mps 740 mmHg 28%
15:00 +33°C° 0 mm 1 mps 740 mmHg 29%
16:00 +33°C° 0 mm 1 mps 740 mmHg 30%
17:00 +32°C° 0 mm 1 mps 740 mmHg 31%
18:00 +31°C° 0 mm 2 mps 740 mmHg 35%
19:00 +29°C° 0 mm 2 mps 740 mmHg 38%
20:00 +28°C° 0 mm 2 mps 740 mmHg 42%
21:00 +26°C° 0 mm 2 mps 740 mmHg 46%
22:00 +25°C° 0 mm 2 mps 740 mmHg 50%
23:00 +24°C° 0 mm 2 mps 740 mmHg 54%

Day after tomorrow, 12 August, Wednesday

Time Temperature Precipitation Wind Pressure Humidity
00:00 +23°C° 0 mm 2 mps 740 mmHg 55%
01:00 +23°C° 0 mm 2 mps 740 mmHg 55%
02:00 +21°C° 0 mm 2 mps 740 mmHg 56%
03:00 +21°C° 0 mm 2 mps 740 mmHg 56%
04:00 +21°C° 0 mm 2 mps 740 mmHg 55%
05:00 +22°C° 0 mm 1 mps 740 mmHg 55%
06:00 +24°C° 0 mm 1 mps 740 mmHg 49%
07:00 +27°C° 0 mm 1 mps 740 mmHg 43%
08:00 +29°C° 0 mm 2 mps 740 mmHg 38%
09:00 +31°C° 0 mm 1 mps 740 mmHg 35%
10:00 +33°C° 0 mm 1 mps 740 mmHg 31%
11:00 +35°C° 0 mm 1 mps 740 mmHg 28%
12:00 +35°C° 0 mm 1 mps 740 mmHg 29%
13:00 +34°C° 0 mm 1 mps 740 mmHg 29%
14:00 +34°C° 0 mm 1 mps 739 mmHg 29%
15:00 +34°C° 0 mm 2 mps 739 mmHg 33%
16:00 +33°C° 0 mm 3 mps 739 mmHg 36%
17:00 +30°C° 0 mm 3 mps 739 mmHg 40%
18:00 +29°C° 0 mm 3 mps 739 mmHg 43%
19:00 +28°C° 0 mm 3 mps 740 mmHg 46%
20:00 +27°C° 0 mm 3 mps 740 mmHg 50%
21:00 +25°C° 0 mm 3 mps 740 mmHg 54%
22:00 +24°C° 0 mm 2 mps 740 mmHg 58%
23:00 +23°C° 0 mm 2 mps 740 mmHg 63%

13 August, Thursday

Time Temperature Precipitation Wind Pressure Humidity
00:00 +21°C° 0.1 mm 2 mps 741 mmHg 66%
01:00 +21°C° 0.1 mm 2 mps 741 mmHg 68%
02:00 +20°C° 0.1 mm 2 mps 741 mmHg 71%
03:00 +21°C° 0 mm 1 mps 741 mmHg 72%
04:00 +20°C° 0 mm 1 mps 740 mmHg 72%
05:00 +20°C° 0 mm 1 mps 740 mmHg 73%
06:00 +21°C° 0 mm 2 mps 741 mmHg 67%
07:00 +24°C° 0 mm 2 mps 741 mmHg 61%
08:00 +26°C° 0 mm 2 mps 742 mmHg 55%
09:00 +28°C° 0 mm 2 mps 742 mmHg 49%
10:00 +30°C° 0 mm 2 mps 742 mmHg 43%
11:00 +32°C° 0 mm 2 mps 742 mmHg 36%
12:00 +32°C° 0 mm 2 mps 741 mmHg 35%
13:00 +33°C° 0 mm 3 mps 741 mmHg 35%
14:00 +34°C° 0 mm 3 mps 741 mmHg 34%
15:00 +31°C° 0.3 mm 3 mps 740 mmHg 42%
16:00 +29°C° 0.3 mm 4 mps 740 mmHg 50%
17:00 +27°C° 0.3 mm 4 mps 740 mmHg 58%
18:00 +26°C° 0.6 mm 4 mps 740 mmHg 64%
19:00 +24°C° 0.6 mm 3 mps 740 mmHg 70%
20:00 +22°C° 0.6 mm 3 mps 741 mmHg 76%
21:00 +22°C° 0.7 mm 3 mps 741 mmHg 80%
22:00 +21°C° 0.7 mm 2 mps 741 mmHg 84%
23:00 +20°C° 0.7 mm 2 mps 741 mmHg 88%

14 August, Friday

Time Temperature Precipitation Wind Pressure Humidity
00:00 +20°C° 0.6 mm 2 mps 741 mmHg 89%
01:00 +20°C° 0.6 mm 2 mps 741 mmHg 90%
02:00 +21°C° 0.6 mm 1 mps 741 mmHg 90%
03:00 +21°C° 0.5 mm 1 mps 741 mmHg 90%
04:00 +21°C° 0.5 mm 1 mps 741 mmHg 90%
05:00 +21°C° 0.5 mm 1 mps 741 mmHg 89%
06:00 +20°C° 0.1 mm 2 mps 741 mmHg 85%
07:00 +21°C° 0.1 mm 2 mps 741 mmHg 80%
08:00 +23°C° 0.1 mm 2 mps 742 mmHg 75%
09:00 +25°C° 0 mm 2 mps 742 mmHg 64%
10:00 +26°C° 0 mm 2 mps 742 mmHg 53%
11:00 +28°C° 0 mm 3 mps 742 mmHg 43%
12:00 +29°C° 0 mm 3 mps 741 mmHg 38%
13:00 +31°C° 0 mm 2 mps 741 mmHg 34%
14:00 +32°C° 0 mm 2 mps 741 mmHg 30%
15:00 +33°C° 0 mm 3 mps 740 mmHg 31%
16:00 +33°C° 0 mm 3 mps 740 mmHg 31%
17:00 +31°C° 0 mm 3 mps 740 mmHg 32%
18:00 +29°C° 0 mm 3 mps 740 mmHg 38%
19:00 +27°C° 0 mm 4 mps 740 mmHg 43%
20:00 +25°C° 0 mm 5 mps 740 mmHg 49%
21:00 +22°C° 0 mm 4 mps 741 mmHg 53%
22:00 +21°C° 0 mm 3 mps 741 mmHg 57%
23:00 +20°C° 0 mm 3 mps 741 mmHg 61%

15 August, Saturday

Time Temperature Precipitation Wind Pressure Humidity
00:00 +20°C° 0 mm 3 mps 741 mmHg 62%
01:00 +19°C° 0 mm 2 mps 741 mmHg 63%
02:00 +19°C° 0 mm 2 mps 741 mmHg 65%
03:00 +19°C° 0 mm 2 mps 741 mmHg 66%
04:00 +19°C° 0 mm 2 mps 740 mmHg 68%
05:00 +19°C° 0 mm 2 mps 740 mmHg 70%
06:00 +21°C° 0 mm 3 mps 740 mmHg 64%
07:00 +22°C° 0 mm 3 mps 740 mmHg 58%
08:00 +25°C° 0 mm 3 mps 741 mmHg 51%
09:00 +27°C° 0 mm 4 mps 741 mmHg 46%
10:00 +29°C° 0 mm 4 mps 741 mmHg 40%
11:00 +32°C° 0 mm 4 mps 741 mmHg 35%
12:00 +32°C° 0 mm 4 mps 740 mmHg 33%
13:00 +32°C° 0 mm 4 mps 740 mmHg 32%
14:00 +33°C° 0 mm 3 mps 739 mmHg 31%
15:00 +32°C° 0 mm 4 mps 739 mmHg 32%
16:00 +30°C° 0 mm 4 mps 739 mmHg 33%
17:00 +30°C° 0 mm 4 mps 738 mmHg 34%
18:00 +28°C° 0 mm 4 mps 738 mmHg 39%
19:00 +26°C° 0 mm 4 mps 738 mmHg 43%
20:00 +23°C° 0 mm 5 mps 738 mmHg 48%
21:00 +22°C° 0 mm 4 mps 739 mmHg 54%
22:00 +20°C° 0 mm 4 mps 739 mmHg 59%
23:00 +19°C° 0 mm 3 mps 739 mmHg 65%
Show more